Weather History for KDLS - July, 2013

Change the Weather History Date:

Tuesday, July 23, 2013

  Actual Average Record
Temperature  
Mean Temperature 78 °F -  
Max Temperature 99 °F 89 °F 108 °F (2006)
Min Temperature 57 °F 60 °F 45 °F (1964)
Cooling Degree Days 12    
Growing Degree Days 28 (Base 50)    
Moisture  
Dew Point 50 °F    
Average Humidity 38    
Maximum Humidity 60    
Minimum Humidity 16    
Precipitation  
Precipitation 0.00 in - - ()
Sea Level Pressure  
Sea Level Pressure 29.89 in    
Wind  
Wind Speed 8 mph (WNW)    
Max Wind Speed 20 mph    
Max Gust Speed 25 mph    
Visibility 10 miles    
Events      
Averages and records for this station are not official NWS values.
T = Trace of Precipitation, MM = Missing Value Source: NWS Daily Summary

Daily Weather History Graph

Daily Weather History Graph

Search for Another Location

Airport or City:

Trip Planner

Search our weather history database for the weather conditions in past years. The results will help you decide how hot, cold, wet, or windy it might be!

Date:

Astronomy

Jul. 23, 2013 Rise Set
Actual Time 5:38 AM PDT 8:43 PM PDT
Civil Twilight 5:03 AM PDT 9:18 PM PDT
Nautical Twilight 4:17 AM PDT 10:03 PM PDT
Astronomical Twilight 3:21 AM PDT 10:58 PM PDT
Moon 9:05 PM PDT (7/23) 7:00 AM PDT (7/23)
Length of Visible Light 16h 15m
Length of Day
15h 04m
Full, 98% of the Moon is Illuminated
Jul 23
Full
Jul 29
Last Quarter
Aug 6
New
Aug 14
First Quarter
Aug 20
Full

Hourly Weather History & Observations

Time (PDT) Temp. Heat Index Dew Point Humidity Pressure Visibility Wind Dir Wind Speed Gust Speed Precip Events Conditions
12:53 AM 72.0 °F - 52.0 °F 49% 29.90 in 10.0 mi WNW 10.4 mph - N/A   Clear
1:53 AM 70.0 °F - 48.9 °F 47% 29.91 in 10.0 mi WSW 4.6 mph - N/A   Clear
2:53 AM 66.0 °F - 46.0 °F 48% 29.91 in 10.0 mi SSW 3.5 mph - N/A   Clear
3:53 AM 63.0 °F - 43.0 °F 48% 29.92 in 10.0 mi WSW 4.6 mph - N/A   Clear
4:53 AM 63.0 °F - 45.0 °F 52% 29.93 in 10.0 mi South 3.5 mph - N/A   Clear
5:53 AM 57.9 °F - 44.1 °F 60% 29.95 in 10.0 mi SE 8.1 mph - N/A   Clear
6:53 AM 63.0 °F - 46.0 °F 54% 29.97 in 10.0 mi South 4.6 mph - N/A   Clear
7:53 AM 69.1 °F - 50.0 °F 51% 29.97 in 10.0 mi Calm Calm - N/A   Clear
8:53 AM 72.0 °F - 57.0 °F 59% 29.97 in 10.0 mi Variable 4.6 mph - N/A   Clear
9:53 AM 77.0 °F - 55.0 °F 47% 29.96 in 10.0 mi NNW 6.9 mph - N/A   Clear
10:53 AM 82.0 °F 81.2 °F 53.1 °F 37% 29.94 in 10.0 mi NNW 3.5 mph - N/A   Clear
11:53 AM 87.1 °F 84.9 °F 53.1 °F 31% 29.92 in 10.0 mi NNW 13.8 mph - N/A   Clear
12:53 PM 91.9 °F - 48.9 °F 23% 29.90 in 10.0 mi NW 11.5 mph - N/A   Clear
1:53 PM 96.1 °F - 45.0 °F 17% 29.87 in 10.0 mi NNW 10.4 mph - N/A   Clear
2:53 PM 98.1 °F - 44.1 °F 16% 29.85 in 10.0 mi NW 10.4 mph - N/A   Clear
3:53 PM 98.1 °F - 48.9 °F 19% 29.83 in 10.0 mi NNW 16.1 mph 19.6 mph N/A   Clear
4:53 PM 98.1 °F - 44.1 °F 16% 29.81 in 10.0 mi NW 12.7 mph - N/A   Clear
5:53 PM 97.0 °F - 44.1 °F 16% 29.81 in 10.0 mi WNW 10.4 mph - N/A   Clear
6:53 PM 93.0 °F - 50.0 °F 23% 29.81 in 10.0 mi NW 11.5 mph 20.7 mph N/A   Clear
7:37 PM 87.8 °F 86.5 °F 57.2 °F 35% 29.83 in 10.0 mi NW 13.8 mph - N/A   Partly Cloudy
7:53 PM 87.1 °F 85.7 °F 55.9 °F 35% 29.83 in 10.0 mi NW 12.7 mph 20.7 mph N/A   Clear
8:53 PM 84.0 °F 83.5 °F 57.9 °F 41% 29.85 in 10.0 mi NNW 11.5 mph - N/A   Clear
9:53 PM 82.9 °F 82.6 °F 57.9 °F 42% 29.87 in 10.0 mi NW 19.6 mph 25.3 mph N/A   Clear
10:53 PM 81.0 °F 80.8 °F 55.9 °F 42% 29.89 in 10.0 mi NW 12.7 mph - N/A   Clear
11:53 PM 80.1 °F 80.2 °F 55.9 °F 43% 29.89 in 10.0 mi WNW 9.2 mph - N/A   Clear